DW0805 Ramloese DK current weather conditions

sailwx.info

Wind from 335 at 0 knots gusting 2

Air temperature 22.2° C
Dewpoint 16.3° C

Last reported at 2019-Aug-24 08:05 UTC.
Time now 2019-Aug-24 08:57 UTC

Location: N 56°01' E 012°05'.
View on Google Maps.

See reports from other nearby stations

  
Tides and Currents Weather Stations Pressure Air Temp Water Temp Dewpoint Dewpoint Depression Visibility Wind Speed Wind Dir Waves Ship Positions
date/time (UTC)wind fromknots sea level pressurealtimeterstation pressurevisibilityair tempwater tempwave heightnotes
2019-Aug-24 08:05 335 0 gusting 2 22.2
2019-Aug-24 07:45 278 0 gusting 4 22.2
2019-Aug-24 07:35 301 1 gusting 4 21.1
2019-Aug-24 07:25 273 1 gusting 2 21.1
2019-Aug-24 06:55 276 21.7
2019-Aug-24 06:25 283 20.0
2019-Aug-24 06:15 301 18.9
2019-Aug-24 06:05 316 18.9
2019-Aug-24 05:55 285 17.8
2019-Aug-24 05:45 304 17.2
2019-Aug-24 05:35 301 16.1
2019-Aug-24 05:15 267 15.6
2019-Aug-24 05:05 288 15.0
2019-Aug-24 04:55 266 14.4
2019-Aug-24 04:35 266 13.9
2019-Aug-24 04:25 275 13.9
2019-Aug-24 03:35 267 14.4
2019-Aug-24 03:25 267 14.4
2019-Aug-24 03:15 267 14.4
2019-Aug-24 02:55 267 13.9
2019-Aug-24 02:45 267 13.9
2019-Aug-24 02:25 267 13.9
2019-Aug-24 02:15 267 14.4
2019-Aug-24 01:55 267 13.9
2019-Aug-24 01:25 267 14.4
2019-Aug-24 01:15 267 15.0
2019-Aug-24 01:05 267 15.0
2019-Aug-24 00:55 267 15.0
2019-Aug-24 00:45 267 15.0
2019-Aug-24 00:35 267 15.6
2019-Aug-24 00:25 267 15.6
2019-Aug-24 00:15 267 15.6
2019-Aug-23 23:55 267 16.1
2019-Aug-23 23:45 267 0 gusting 2 16.1
2019-Aug-23 23:25 267 0 gusting 2 16.1
2019-Aug-23 23:05 267 16.1
2019-Aug-23 22:55 267 0 gusting 1 15.6
2019-Aug-23 22:45 267 15.6
2019-Aug-23 22:35 267 15.6
2019-Aug-23 22:25 267 15.6
2019-Aug-23 22:15 267 15.6
2019-Aug-23 22:05 267 15.6
2019-Aug-23 21:55 267 16.1
2019-Aug-23 21:45 267 16.1
2019-Aug-23 21:35 267 16.1
2019-Aug-23 21:15 267 16.7
2019-Aug-23 21:05 267 16.7
2019-Aug-23 20:45 267 17.2
2019-Aug-23 20:25 267 17.8
2019-Aug-23 20:15 267 17.8
2019-Aug-23 19:55 267 0 gusting 2 17.8
2019-Aug-23 19:45 267 1 gusting 4 18.3
2019-Aug-23 19:35 267 1 gusting 4 18.3
2019-Aug-23 19:25 267 1 gusting 4 18.3
2019-Aug-23 19:15 267 1 gusting 2 18.9
2019-Aug-23 19:05 267 2 gusting 6 18.9
2019-Aug-23 18:55 267 1 gusting 4 18.9
2019-Aug-23 18:45 267 1 gusting 2 19.4
2019-Aug-23 18:35 273 1 gusting 4 19.4
2019-Aug-23 18:15 275 1 gusting 4 20.0
2019-Aug-23 17:35 301 2 gusting 7 21.1
2019-Aug-23 17:25 263 4 gusting 10 21.7
2019-Aug-23 17:15 276 2 gusting 7 21.7
2019-Aug-23 17:05 264 4 gusting 8 22.2
2019-Aug-23 16:55 289 5 gusting 8 22.2
2019-Aug-23 16:35 276 4 gusting 10 22.8
2019-Aug-23 16:15 259 4 gusting 7 23.3
2019-Aug-23 16:05 297 2 gusting 6 22.8
2019-Aug-23 15:55 303 5 gusting 13 22.8
2019-Aug-23 15:35 335 5 gusting 11 22.8
2019-Aug-23 15:25 301 6 gusting 11 22.8
2019-Aug-23 14:55 268 6 gusting 11 22.2
2019-Aug-23 14:45 261 4 gusting 8 22.2
2019-Aug-23 14:25 250 5 gusting 13 22.2
2019-Aug-23 14:15 264 4 gusting 13 22.2
2019-Aug-23 14:05 258 7 gusting 13 22.2
2019-Aug-23 13:55 294 6 gusting 11 22.2
2019-Aug-23 13:45 257 6 gusting 11 22.2
2019-Aug-23 13:35 253 7 gusting 11 22.8
2019-Aug-23 13:25 246 6 gusting 11 22.2
2019-Aug-23 13:15 305 5 gusting 13 22.2
2019-Aug-23 13:05 261 5 gusting 12 22.2
2019-Aug-23 12:55 269 8 gusting 12 22.2
2019-Aug-23 12:45 292 6 gusting 13 22.2
2019-Aug-23 12:25 292 10 gusting 17 23.3
2019-Aug-23 12:15 305 9 gusting 17 23.9
2019-Aug-23 12:05 257 6 gusting 13 24.4
2019-Aug-23 11:45 268 14 gusting 15 23.9
2019-Aug-23 11:25 303 8 gusting 15 23.9
2019-Aug-23 11:15 268 7 gusting 13 23.9
2019-Aug-23 11:05 242 9 gusting 17 24.4
2019-Aug-23 10:35 230 7 gusting 13 23.3
2019-Aug-23 10:15 228 7 gusting 13 22.8
2019-Aug-23 10:05 248 7 gusting 11 22.2
2019-Aug-23 09:45 236 5 gusting 10 21.1
2019-Aug-23 09:25 236 5 gusting 12 20.6
2019-Aug-23 09:05 246 6 gusting 11 20.6
2019-Aug-23 08:55 230 6 gusting 11 21.1
2019-Aug-23 08:45 227 6 gusting 11 20.6
2019-Aug-23 08:35 290 7 gusting 12 20.0
2019-Aug-23 08:15 227 8 gusting 13 20.6
2019-Aug-23 08:05 242 6 gusting 12 20.0
2019-Aug-23 07:55 239 7 gusting 13 19.4
2019-Aug-23 07:45 233 6 gusting 12 20.0
2019-Aug-23 07:15 234 5 gusting 11 18.3
2019-Aug-23 07:05 236 5 gusting 8 18.3
2019-Aug-23 06:35 242 4 gusting 8 17.8
2019-Aug-23 06:25 235 6 gusting 11 17.8
2019-Aug-23 06:15 246 6 gusting 12 17.8
2019-Aug-23 06:05 238 6 gusting 10 17.8
2019-Aug-23 05:55 245 6 gusting 11 17.8
2019-Aug-23 05:45 242 5 gusting 8 17.8
2019-Aug-23 05:35 245 4 gusting 8 17.2
2019-Aug-23 05:25 285 4 gusting 7 17.2
2019-Aug-23 04:55 237 3 gusting 10 17.2
2019-Aug-23 04:45 238 3 gusting 8 17.2
2019-Aug-23 04:35 335 4 gusting 10 17.2
2019-Aug-23 04:25 239 4 gusting 7 17.2
2019-Aug-23 04:15 250 5 gusting 12 17.2
2019-Aug-23 04:05 240 6 gusting 10 17.2
2019-Aug-23 03:45 228 7 gusting 12 17.2
2019-Aug-23 03:15 231 4 gusting 7 17.2
2019-Aug-23 02:55 244 4 gusting 8 17.2
2019-Aug-23 02:45 250 4 gusting 8 16.7
2019-Aug-23 02:35 249 4 gusting 7 17.2
2019-Aug-23 02:25 243 4 gusting 7 17.2
2019-Aug-23 02:15 251 3 gusting 7 17.2
2019-Aug-23 02:05 244 5 gusting 7 17.2
2019-Aug-23 01:55 252 2 gusting 7 17.2
2019-Aug-23 01:35 256 4 gusting 8 17.2
2019-Aug-23 01:15 251 5 gusting 8 17.2
2019-Aug-23 01:05 249 5 gusting 7 17.2
2019-Aug-23 00:55 246 2 gusting 6 17.2
2019-Aug-23 00:35 249 0 gusting 2 17.2
2019-Aug-23 00:25 249 0 gusting 2 17.2
2019-Aug-23 00:15 249 1 gusting 2 17.2
2019-Aug-23 00:05 249 2 gusting 5 17.2
2019-Aug-22 23:55 249 2 gusting 6 17.8
2019-Aug-22 23:35 248 2 gusting 7 17.8
2019-Aug-22 23:25 244 2 gusting 6 17.8
2019-Aug-22 23:05 229 5 gusting 8 17.8
2019-Aug-22 22:55 218 6 gusting 8 17.8
2019-Aug-22 22:45 226 6 gusting 10 17.8
2019-Aug-22 22:25 225 4 gusting 6 17.2
2019-Aug-22 22:05 227 2 gusting 6 17.2
2019-Aug-22 21:55 227 0 gusting 2 17.8
2019-Aug-22 21:45 227 0 gusting 2 17.8
2019-Aug-22 21:25 227 1 gusting 6 17.8
2019-Aug-22 21:05 237 0 gusting 2 17.8
2019-Aug-22 20:55 237 0 gusting 2 17.8
2019-Aug-22 20:35 237 0 gusting 1 17.8
2019-Aug-22 20:25 237 18.3
2019-Aug-22 20:05 238 2 gusting 6 18.9
2019-Aug-22 19:55 244 2 gusting 5 18.9
2019-Aug-22 19:35 246 2 gusting 5 18.9
2019-Aug-22 19:25 246 1 gusting 6 18.9
2019-Aug-22 19:15 247 1 gusting 5 19.4
2019-Aug-22 19:05 247 2 gusting 5 19.4
2019-Aug-22 18:55 247 1 gusting 5 19.4
2019-Aug-22 18:35 246 2 gusting 6 19.4
2019-Aug-22 18:25 245 2 gusting 7 20.0
2019-Aug-22 18:15 296 2 gusting 6 20.0
2019-Aug-22 18:05 225 1 gusting 8 20.6
2019-Aug-22 17:55 229 6 gusting 11 20.6
2019-Aug-22 17:45 227 6 gusting 8 20.6
2019-Aug-22 17:35 228 6 gusting 13 20.6
2019-Aug-22 16:45 241 6 gusting 8 21.1
2019-Aug-22 16:35 231 5 gusting 7 21.7
2019-Aug-22 16:05 236 7 gusting 14 22.2
2019-Aug-22 15:55 218 11 gusting 15 22.2
2019-Aug-22 15:35 227 11 gusting 17 22.8
2019-Aug-22 14:55 204 7 gusting 12 22.2
2019-Aug-22 14:45 208 7 gusting 13 22.2
2019-Aug-22 14:35 217 8 gusting 14 21.7
2019-Aug-22 14:25 217 10 gusting 14 21.7
2019-Aug-22 14:15 211 10 gusting 17 22.2
2019-Aug-22 14:05 225 8 gusting 15 22.8
2019-Aug-22 13:55 204 10 gusting 13 22.2
2019-Aug-22 13:45 278 12 gusting 15 22.2
2019-Aug-22 13:25 218 9 gusting 13 22.8
2019-Aug-22 13:05 230 10 gusting 13 23.3
2019-Aug-22 12:55 244 8 gusting 13 23.3
2019-Aug-22 12:45 279 10 gusting 15 22.8
2019-Aug-22 12:35 272 10 gusting 14 22.8
2019-Aug-22 12:25 213 8 gusting 14 22.8
2019-Aug-22 12:15 237 9 gusting 14 23.3
2019-Aug-22 12:05 210 12 gusting 15 22.8
2019-Aug-22 11:55 211 8 gusting 14 22.8
2019-Aug-22 11:15 204 11 gusting 13 21.7
2019-Aug-22 11:05 219 8 gusting 14 21.1
2019-Aug-22 10:55 216 10 gusting 13 21.7
2019-Aug-22 10:45 215 9 gusting 13 21.7
2019-Aug-22 10:35 203 12 gusting 17 21.7
2019-Aug-22 10:25 210 8 gusting 13 21.7
2019-Aug-22 10:15 210 7 gusting 13 21.1
2019-Aug-22 10:05 208 6 gusting 12 22.2
2019-Aug-22 09:55 191 6 gusting 13 21.7
2019-Aug-22 09:25 204 9 gusting 13 20.6
2019-Aug-22 09:15 206 7 gusting 13 20.6
2019-Aug-22 09:05 212 9 gusting 13 20.6
2019-Aug-22 08:55 194 8 gusting 13 20.0
2019-Aug-22 08:35 214 6 gusting 12 20.6
2019-Aug-22 08:25 209 7 gusting 13 20.0
2019-Aug-22 08:15 213 7 gusting 11 20.0